[[{"header":{"parameterUnit":"m.s-1","parameterCategory":2,"la1":30.2991,"la2":30.254,"lo1":-89.0895,"lo2":-89.0444,"dy":0.0017,"dx":0.0017,"nx":28,"ny":28,"refTime":"2024-04-29T03:00:00:Z","depth":"0","parameterNumber":2,"parameterNumberName":"U-component_of_CURRENTS"},"data":[0,0,0,0,0,0,0,0,0,0,0,0,0,0,0,0,0,0,0,0,0,0,0,0,0,0,0,0,0,0,0,0,0,0,0,0,0,0,0,0,0,0,0,0,0,0,0,0,0,0,0,0,0,0,0,0,0,0,0.2251,0.2253,0,0.2389,0.239,0.2391,0.2439,0.2438,0.2438,0.2438,0.2502,0.2504,0.2506,0,0,0,0,0,0,0,0,0,0,0,0,0,0.2034,0.2038,0.2251,0.2253,0.2255,0.2388,0.239,0.2392,0.2439,0.2438,0.2438,0.2438,0.2502,0.2504,0.2506,0,0,0,0,0,0,0,0,0,0,0,0,0,0.2143,0.2039,0.225,0.2297,0.2302,0.2388,0.239,0.2392,0.2439,0.2438,0.2438,0.2437,0.2501,0.2504,0.2507,0.2533,0,0,0.2516,0.2517,0,0,0,0,0,0,0,0,0.2137,0.215,0.2288,0.2294,0.23,0.2399,0.2337,0.2437,0.2439,0.2384,0.2438,0.2437,0.2463,0.2469,0.2493,0.2536,0.2539,0.2516,0.2518,0.2519,0.252,0,0,0,0,0,0,0,0.2129,0.2145,0.2302,0.229,0.2298,0.2312,0.2327,0.2357,0.242,0.2389,0.2393,0.2413,0.2465,0.249,0.2494,0.254,0.2516,0.2519,0.252,0.2522,0.266,0.2661,0,0,0,0,0,0,0.2119,0.2138,0.2298,0.2307,0.2219,0.2317,0.2333,0.2365,0.2422,0.2432,0.2413,0.2415,0.2485,0.2491,0.2497,0.2575,0.2519,0.2522,0.2524,0.2658,0.266,0.2662,0,0,0,0,0,0,0.2114,0.2132,0.2293,0.2227,0.2248,0.2321,0.2357,0.2368,0.2398,0.2442,0.245,0.2433,0.2485,0.2493,0.2539,0.2576,0.2523,0.2526,0.2656,0.2658,0.2661,0.2703,0,0,0,0,0,0,0.2107,0.213,0.2147,0.2227,0.2252,0.2352,0.2358,0.2371,0.2412,0.2416,0.2461,0.2467,0.2485,0.2535,0.2542,0.2579,0.2528,0.2653,0.2657,0.266,0.2699,0.2707,0.2713,0,0,0,0,0,0.2099,0.2126,0.2147,0.2167,0.2275,0.2354,0.2368,0.2415,0.2413,0.2437,0.2469,0.2465,0.2563,0.2539,0.2547,0.2585,0.2651,0.2656,0.266,0.2696,0.2705,0.2713,0,0,0,0,0,0,0.2035,0.2136,0.2161,0.2215,0.2283,0.2363,0.2387,0.2417,0.2462,0.2458,0.2487,0.2497,0.2556,0.2563,0.2536,0.2637,0.2608,0.2614,0.2632,0.2641,0.2648,0.2657,0.2531,0,0,0,0,0,0.2031,0.2079,0.2172,0.2213,0.2246,0.2315,0.235,0.2386,0.2439,0.2458,0.2495,0.2532,0.2581,0.2602,0.2643,0.269,0.2697,0.2722,0.2729,0.2735,0.2749,0.2796,0.2808,0.2676,0.2676,0.2676,0,0,0.2012,0.2077,0.2101,0.2203,0.2252,0.2321,0.2334,0.2392,0.2448,0.2457,0.2528,0.2559,0.2601,0.2666,0.2692,0.2673,0.2774,0.274,0.2745,0.2756,0.2802,0.2814,0.2826,0.2679,0.2678,0.2678,0,0,0.2014,0.2061,0.211,0.2172,0.2262,0.2315,0.2332,0.2421,0.2457,0.2531,0.2556,0.2611,0.2675,0.2726,0.2755,0.2824,0.2813,0.283,0.2871,0.2916,0.2927,0.2937,0.2945,0.2955,0.283,0.283,0.283,0,0.1989,0.2076,0.2132,0.2202,0.2257,0.2314,0.2381,0.2433,0.2525,0.256,0.2556,0.2684,0.2713,0.2807,0.2836,0.2842,0.2847,0.2831,0.2924,0.2934,0.2944,0.295,0.2961,0.2832,0.2832,0.2832,0.2831,0,0.2043,0.2111,0.2141,0.2256,0.2315,0.2379,0.2465,0.2516,0.2559,0.2616,0.271,0.2763,0.2838,0.286,0.2872,0.2962,0.2935,0.2928,0.2898,0.2959,0.2962,0.2972,0.2836,0.2835,0.2834,0.2833,0,0,0.2003,0.2153,0.2167,0.2228,0.2352,0.2408,0.2493,0.2598,0.2649,0.2729,0.2807,0.2904,0.2924,0.2959,0.2984,0.3027,0.3093,0.3005,0.3006,0.3005,0.3165,0.3085,0.3088,0.3095,0.3098,0.31,0.3133,0,0.2038,0.2165,0.2237,0.2348,0.2422,0.2497,0.2573,0.2661,0.2728,0.2809,0.2876,0.2957,0.2964,0.2999,0.3049,0.3088,0.3125,0.3083,0.3114,0.3115,0.303,0.3101,0.3038,0.3058,0.3143,0.3145,0.3146,0,0.2086,0.2168,0.2285,0.2412,0.2448,0.2512,0.2632,0.271,0.2822,0.2872,0.2958,0.3004,0.3103,0.3085,0.3188,0.3156,0.3171,0.3188,0.3189,0.3111,0.3056,0.3016,0.3074,0.3054,0.3162,0.3161,0.316,0,0.206,0.2204,0.2296,0.2344,0.2492,0.254,0.261,0.2723,0.279,0.2909,0.2961,0.3071,0.3127,0.3184,0.3229,0.3212,0.3313,0.329,0.3232,0.3224,0.3178,0.3162,0.3215,0.3361,0.3361,0.3361,0.3361,0,0.2095,0.2166,0.2282,0.2339,0.2422,0.2523,0.2613,0.2693,0.2806,0.2882,0.2985,0.3058,0.3155,0.322,0.325,0.3273,0.3333,0.3257,0.3243,0.3187,0.3172,0.3155,0.3139,0.3362,0.3362,0.3362,0.3362,0,0.2076,0.2162,0.2262,0.2389,0.2422,0.2477,0.2601,0.2666,0.2773,0.2873,0.2915,0.3057,0.3149,0.3223,0.331,0.3286,0.3245,0.3311,0.3219,0.3193,0.3086,0.3074,0.2943,0.285,0.3248,0.3247,0.3245,0,0.2083,0.2138,0.2264,0.2307,0.2365,0.245,0.2514,0.2637,0.2701,0.2867,0.2909,0.3036,0.3113,0.3207,0.322,0.3252,0.32,0.3178,0.3142,0.3089,0.3067,0.292,0.2842,0.3094,0.3091,0.3089,0.3088,0,0.2084,0.2128,0.2202,0.2277,0.2343,0.2406,0.2491,0.2537,0.268,0.2753,0.2849,0.2923,0.3047,0.3068,0.3113,0.3123,0.3047,0.3133,0.3131,0.2998,0.2793,0.2694,0.3039,0.307,0.3072,0.3073,0.3074,0.3075,0.206,0.2091,0.2174,0.2228,0.2295,0.2325,0.2331,0.2422,0.2482,0.2557,0.2704,0.2775,0.2929,0.2992,0.2968,0.2947,0.2895,0.2916,0.2919,0.2783,0.2654,0.2931,0.2908,0.2908,0.2909,0.291,0.291,0,0.2005,0.2048,0.2113,0.2159,0.2169,0.2229,0.2284,0.2263,0.2267,0.2421,0.247,0.2639,0.2697,0.2812,0.2882,0.2794,0.2629,0.2743,0.2583,0.2525,0.2851,0.2809,0.27,0.27,0.27,0.27,0.27,0.27,0.1984,0.2003,0.2024,0.1998,0.2022,0.1979,0.1971,0.1969,0.2047,0.2127,0.224,0.2367,0.2681,0.285,0.2844,0.2759,0.2565,0.243,0.2392,0.2724,0.2742,0.2759,0.2718,0.2592,0.2592,0.1975,0.1971,0.1968]},{"header":{"parameterUnit":"m.s-1","parameterCategory":2,"la1":30.2991,"la2":30.254,"lo1":-89.0895,"lo2":-89.0444,"dy":0.0017,"dx":0.0017,"nx":28,"ny":28,"refTime":"2024-04-29T03:00:00:Z","depth":"0","parameterNumber":3,"parameterNumberName":"V-component_of_CURRENTS"},"data":[0,0,0,0,0,0,0,0,0,0,0,0,0,0,0,0,0,0,0,0,0,0,0,0,0,0,0,0,0,0,0,0,0,0,0,0,0,0,0,0,0,0,0,0,0,0,0,0,0,0,0,0,0,0,0,0,0,0,-0.0111,-0.0112,0,-0.0161,-0.0162,-0.0162,-0.0182,-0.0182,-0.0182,-0.0182,-0.021,-0.0211,-0.0211,0,0,0,0,0,0,0,0,0,0,0,0,0,-0.0049,-0.005,-0.0111,-0.0112,-0.0113,-0.0161,-0.0162,-0.0162,-0.0182,-0.0182,-0.0182,-0.0182,-0.021,-0.0211,-0.0212,0,0,0,0,0,0,0,0,0,0,0,0,0,-0.0084,-0.005,-0.0111,-0.0129,-0.0131,-0.0161,-0.0162,-0.0162,-0.0182,-0.0182,-0.0182,-0.0182,-0.0209,-0.0211,-0.0212,-0.0219,0,0,-0.0215,-0.0216,0,0,0,0,0,0,0,0,-0.0082,-0.0086,-0.0126,-0.0128,-0.0131,-0.0166,-0.015,-0.0181,-0.0182,-0.0161,-0.0182,-0.0182,-0.0194,-0.0197,-0.0204,-0.022,-0.0222,-0.0215,-0.0216,-0.0216,-0.0217,0,0,0,0,0,0,0,-0.0079,-0.0084,-0.013,-0.0127,-0.013,-0.0141,-0.0145,-0.0156,-0.0176,-0.0163,-0.0165,-0.0173,-0.0195,-0.0203,-0.0205,-0.0222,-0.0215,-0.0216,-0.0217,-0.0217,-0.0259,-0.0259,0,0,0,0,0,0,-0.0075,-0.0081,-0.0128,-0.0131,-0.0107,-0.0142,-0.0147,-0.0154,-0.0176,-0.018,-0.0172,-0.0173,-0.0201,-0.0204,-0.0206,-0.0225,-0.0216,-0.0218,-0.0218,-0.0259,-0.0259,-0.026,0,0,0,0,0,0,-0.0073,-0.0079,-0.0126,-0.0109,-0.0116,-0.0143,-0.015,-0.0155,-0.0162,-0.0184,-0.0187,-0.0176,-0.0201,-0.0205,-0.0217,-0.0226,-0.0218,-0.0219,-0.0258,-0.0259,-0.0259,-0.0256,0,0,0,0,0,0,-0.0071,-0.0078,-0.0078,-0.0108,-0.0116,-0.0143,-0.0151,-0.0156,-0.0168,-0.0169,-0.0188,-0.019,-0.0202,-0.0215,-0.0218,-0.0227,-0.022,-0.0258,-0.0258,-0.0259,-0.0256,-0.0257,-0.0257,0,0,0,0,0,-0.0069,-0.0069,-0.0077,-0.0083,-0.0117,-0.0143,-0.0148,-0.0166,-0.0168,-0.0172,-0.0184,-0.019,-0.0222,-0.0216,-0.0219,-0.0229,-0.0257,-0.0258,-0.0259,-0.0255,-0.0256,-0.0257,0,0,0,0,0,0,-0.0043,-0.0072,-0.0082,-0.0091,-0.0115,-0.0147,-0.0151,-0.0164,-0.0177,-0.0174,-0.0192,-0.0196,-0.0212,-0.022,-0.0212,-0.0244,-0.0242,-0.0243,-0.0238,-0.0239,-0.024,-0.0243,-0.0221,0,0,0,0,0,-0.0038,-0.0043,-0.0077,-0.0083,-0.0093,-0.0121,-0.0132,-0.0146,-0.0164,-0.017,-0.0187,-0.0203,-0.0219,-0.0227,-0.0242,-0.0255,-0.0262,-0.0265,-0.0266,-0.0267,-0.0272,-0.0301,-0.0305,-0.0263,-0.0263,-0.0263,0,0,-0.0029,-0.0046,-0.0049,-0.0078,-0.0095,-0.0108,-0.0127,-0.0142,-0.0153,-0.0171,-0.0186,-0.0205,-0.0223,-0.0242,-0.025,-0.0249,-0.0277,-0.0268,-0.0268,-0.0273,-0.0303,-0.0307,-0.0311,-0.0263,-0.0263,-0.0263,0,0,-0.0015,-0.003,-0.003,-0.0048,-0.0074,-0.0095,-0.0098,-0.0131,-0.0145,-0.0164,-0.0181,-0.0209,-0.0227,-0.0253,-0.0264,-0.0278,-0.028,-0.0279,-0.0286,-0.0314,-0.0318,-0.0321,-0.0309,-0.0312,-0.0279,-0.0279,-0.0279,0,-0.0004,-0.0009,-0.0034,-0.0041,-0.0051,-0.0087,-0.009,-0.0113,-0.0146,-0.0157,-0.0165,-0.0219,-0.0236,-0.027,-0.0278,-0.0282,-0.0281,-0.0279,-0.0315,-0.0319,-0.0323,-0.031,-0.0313,-0.0279,-0.0279,-0.0279,-0.0279,0,0.0008,0.0005,0.0003,-0.0016,-0.0032,-0.0041,-0.0077,-0.0094,-0.0115,-0.0141,-0.0181,-0.022,-0.0249,-0.0267,-0.0276,-0.0314,-0.0297,-0.0312,-0.0312,-0.0327,-0.0312,-0.0315,-0.0279,-0.0279,-0.0279,-0.0279,0,0,0.0034,0.0016,0.0017,0.0019,-0.0017,-0.0026,-0.0048,-0.0079,-0.0083,-0.014,-0.0156,-0.0218,-0.0244,-0.026,-0.0289,-0.0328,-0.0348,-0.0329,-0.033,-0.0314,-0.0379,-0.0346,-0.0346,-0.0368,-0.0369,-0.037,-0.0348,0,0.0052,0.0058,0.0038,0.0041,0.0041,0.0005,-0.0009,-0.0042,-0.0071,-0.0095,-0.0165,-0.0185,-0.0239,-0.0244,-0.03,-0.0331,-0.036,-0.0351,-0.037,-0.037,-0.0337,-0.0351,-0.0332,-0.0311,-0.0351,-0.0352,-0.0352,0,0.0071,0.0075,0.0086,0.008,0.0076,0.0073,0.0054,0.0037,-0.0013,-0.0035,-0.0093,-0.0131,-0.0198,-0.0235,-0.0326,-0.0313,-0.0345,-0.0381,-0.0381,-0.0358,-0.0344,-0.0308,-0.0315,-0.0479,-0.0357,-0.0356,-0.0356,0,0.0111,0.0109,0.0124,0.0121,0.0104,0.0107,0.0097,0.006,0.0065,0.0014,0.0024,-0.0084,-0.0097,-0.0195,-0.0265,-0.029,-0.0347,-0.0385,-0.0389,-0.0385,-0.0378,-0.0372,-0.0546,-0.0448,-0.0448,-0.0448,-0.0448,0,0.0139,0.0153,0.0151,0.0162,0.0187,0.0157,0.0183,0.0153,0.014,0.0174,0.007,0.0088,-0.0088,-0.0136,-0.0235,-0.0305,-0.0318,-0.039,-0.0387,-0.0372,-0.0366,-0.0514,-0.0603,-0.0447,-0.0447,-0.0447,-0.0448,0,0.0179,0.0174,0.02,0.0202,0.0209,0.0231,0.0258,0.0284,0.026,0.0306,0.0304,0.0228,0.0168,0.0014,-0.0114,-0.0224,-0.0391,-0.0331,-0.0281,-0.0274,-0.0458,-0.0544,-0.0683,-0.0737,-0.0354,-0.0353,-0.0352,0,0.02,0.0217,0.0243,0.0281,0.0291,0.0326,0.0361,0.0343,0.0391,0.0418,0.046,0.0411,0.0413,0.0224,0.0004,-0.0165,-0.0321,-0.0259,-0.0329,-0.047,-0.0566,-0.0632,-0.0673,-0.0304,-0.0303,-0.0303,-0.0302,0,0.0251,0.0261,0.0291,0.0366,0.0417,0.0469,0.0528,0.0581,0.0595,0.0653,0.0738,0.0743,0.0559,0.0378,0.0118,-0.0013,-0.0375,-0.0246,-0.0426,-0.0573,-0.0625,-0.0672,-0.0291,-0.0295,-0.0295,-0.0296,-0.0296,-0.0297,0.0303,0.0342,0.0397,0.0468,0.0531,0.0624,0.0689,0.0773,0.0874,0.0981,0.0969,0.1028,0.0719,0.0359,0.0128,-0.0293,-0.0311,-0.0432,-0.0528,-0.0584,-0.0649,-0.0229,-0.0215,-0.0215,-0.0215,-0.0215,-0.0215,0,0.0385,0.0433,0.0504,0.0596,0.0684,0.0692,0.0812,0.0898,0.105,0.1166,0.1249,0.1188,0.0794,0.0383,-0.0193,-0.0525,-0.066,-0.071,-0.084,-0.087,-0.0527,-0.0541,-0.0555,-0.0555,-0.0555,-0.0555,-0.0554,-0.0554,0.0438,0.0528,0.0559,0.0718,0.0785,0.0904,0.0979,0.1109,0.1223,0.1414,0.1499,0.1525,0.1251,0.0101,-0.068,-0.0865,-0.1105,-0.1149,-0.127,-0.109,-0.1073,-0.1057,-0.1095,-0.1225,-0.1226,-0.1571,-0.1575,-0.1578]}],[{"header":{"parameterUnit":"m.s-1","parameterCategory":2,"la1":30.2991,"la2":30.254,"lo1":-89.0895,"lo2":-89.0444,"dy":0.0017,"dx":0.0017,"nx":28,"ny":28,"refTime":"2024-04-29T03:00:00:Z","depth":"2","parameterNumber":2,"parameterNumberName":"U-component_of_CURRENTS"},"data":[0,0,0,0,0,0,0,0,0,0,0,0,0,0,0,0,0,0,0,0,0,0,0,0,0,0,0,0,0,0,0,0,0,0,0,0,0,0,0,0,0,0,0,0,0,0,0,0,0,0,0,0,0,0,0,0,0,0,0.1816,0.1817,0,0.1918,0.1918,0.1919,0.1937,0.1937,0.1937,0.1937,0.1979,0.198,0.1981,0,0,0,0,0,0,0,0,0,0,0,0,0,0.1658,0.166,0.1816,0.1818,0.1819,0.1917,0.1918,0.1919,0.1937,0.1937,0.1937,0.1937,0.1978,0.198,0.1981,0,0,0,0,0,0,0,0,0,0,0,0,0,0.1733,0.166,0.1815,0.1845,0.185,0.1917,0.1918,0.1919,0.1938,0.1937,0.1937,0.1937,0.1978,0.198,0.1982,0.2,0,0,0.1988,0.1988,0,0,0,0,0,0,0,0,0.1729,0.1738,0.1839,0.1844,0.1849,0.192,0.1878,0.1946,0.1938,0.1897,0.1937,0.1936,0.1958,0.1962,0.1973,0.2002,0.2004,0.1988,0.1989,0.199,0.199,0,0,0,0,0,0,0,0.1723,0.1734,0.1849,0.1841,0.1847,0.1862,0.1871,0.1891,0.1922,0.1901,0.1904,0.1926,0.1959,0.1971,0.1974,0.2004,0.1988,0.1989,0.1991,0.1991,0.2098,0.2099,0,0,0,0,0,0,0.1724,0.1729,0.1846,0.1853,0.1794,0.1865,0.1875,0.1892,0.1923,0.193,0.1926,0.1927,0.1968,0.1972,0.1976,0.2048,0.199,0.1992,0.1993,0.2096,0.2098,0.21,0,0,0,0,0,0,0.172,0.1733,0.1842,0.1799,0.1814,0.1869,0.1887,0.1894,0.1903,0.1945,0.1949,0.1928,0.1968,0.1973,0.1998,0.2048,0.1993,0.1994,0.2094,0.2097,0.2099,0.2162,0,0,0,0,0,0,0.1715,0.1731,0.1742,0.1799,0.1817,0.1871,0.1889,0.1897,0.1921,0.1922,0.1948,0.1952,0.1968,0.1995,0.2,0.205,0.1996,0.2092,0.2095,0.2098,0.2158,0.2166,0.2173,0,0,0,0,0,0.1709,0.1726,0.1742,0.1757,0.1831,0.1872,0.1881,0.1914,0.1921,0.192,0.1948,0.195,0.2019,0.1997,0.2003,0.2054,0.209,0.2094,0.2098,0.2154,0.2165,0.2173,0,0,0,0,0,0,0.1663,0.1732,0.175,0.1787,0.1823,0.1877,0.1898,0.1911,0.1933,0.1949,0.1961,0.1967,0.2014,0.2017,0.1993,0.2094,0.206,0.2064,0.2101,0.211,0.2118,0.2113,0.1998,0,0,0,0,0,0.1661,0.1689,0.1749,0.1776,0.18,0.1845,0.1868,0.1897,0.193,0.1939,0.1964,0.1999,0.2036,0.2055,0.2085,0.2128,0.213,0.2168,0.2176,0.2183,0.2183,0.2235,0.2247,0.2112,0.2112,0.2112,0,0,0.1652,0.1695,0.1711,0.1768,0.1806,0.1848,0.1856,0.1904,0.194,0.1942,0.1994,0.2023,0.2051,0.2112,0.2135,0.2119,0.222,0.2187,0.2193,0.2189,0.224,0.2253,0.2265,0.2114,0.2114,0.2114,0,0,0.1657,0.1688,0.1719,0.1754,0.1823,0.1855,0.1864,0.1928,0.1954,0.2004,0.2031,0.2075,0.2124,0.2165,0.2187,0.2249,0.2258,0.2275,0.2316,0.2367,0.2379,0.2389,0.2398,0.2409,0.2282,0.2282,0.2283,0,0.1646,0.1695,0.173,0.1774,0.1816,0.1854,0.19,0.1933,0.1996,0.2032,0.2026,0.2136,0.215,0.2235,0.2265,0.2268,0.2289,0.2279,0.2378,0.2388,0.2397,0.2404,0.2415,0.2286,0.2286,0.2285,0.2285,0,0.1683,0.1722,0.1746,0.1814,0.1853,0.1901,0.1962,0.2004,0.2042,0.2084,0.2171,0.2205,0.2269,0.2294,0.2297,0.2391,0.2381,0.2379,0.2353,0.2415,0.2418,0.2428,0.2291,0.229,0.2289,0.2288,0,0,0.1662,0.1753,0.1762,0.18,0.1887,0.1922,0.1993,0.2067,0.2112,0.2182,0.2248,0.2325,0.2354,0.2381,0.2411,0.2455,0.2528,0.2454,0.2455,0.246,0.263,0.2556,0.2559,0.2562,0.2565,0.2566,0.2601,0,0.1682,0.1759,0.1807,0.1877,0.1925,0.1989,0.2038,0.2113,0.2171,0.2238,0.2308,0.2375,0.2386,0.2428,0.2482,0.2518,0.2561,0.2517,0.2571,0.2571,0.2497,0.2571,0.2414,0.2428,0.2611,0.2613,0.2614,0,0.1709,0.1759,0.1834,0.1916,0.1943,0.1985,0.2085,0.2144,0.2245,0.2293,0.2389,0.2433,0.2528,0.2513,0.2621,0.2603,0.2623,0.264,0.2642,0.2557,0.2517,0.2398,0.2439,0.263,0.2629,0.2628,0.2627,0,0.1685,0.1775,0.1834,0.1867,0.1965,0.201,0.2065,0.2163,0.2227,0.2339,0.2392,0.2501,0.2572,0.2625,0.2668,0.2661,0.276,0.2745,0.2695,0.2688,0.2553,0.253,0.2815,0.2815,0.2815,0.2815,0.2815,0,0.1695,0.174,0.1821,0.1858,0.1917,0.1999,0.2075,0.2143,0.225,0.2324,0.2424,0.2492,0.2612,0.2682,0.2695,0.2727,0.2787,0.2712,0.2706,0.2568,0.2547,0.2719,0.2707,0.2816,0.2816,0.2816,0.2816,0,0.1671,0.1728,0.1794,0.1886,0.1912,0.1962,0.2075,0.2126,0.2234,0.2336,0.238,0.2524,0.2613,0.2691,0.2776,0.2762,0.2782,0.2773,0.2583,0.2554,0.2663,0.2654,0.272,0.2718,0.2717,0.2715,0.2714,0,0.1666,0.1699,0.1795,0.1828,0.1872,0.1949,0.1994,0.2109,0.2172,0.2336,0.2377,0.2514,0.2576,0.267,0.269,0.2707,0.2755,0.2551,0.2501,0.2672,0.2661,0.2654,0.2648,0.2342,0.2338,0.2334,0.2332,0,0.1656,0.1691,0.1741,0.1796,0.1847,0.1904,0.1982,0.2019,0.2156,0.2228,0.2317,0.2378,0.2509,0.2483,0.2535,0.251,0.2533,0.248,0.274,0.2386,0.2317,0.2305,0.2311,0.2301,0.2304,0.2307,0.2308,0.2309,0.1633,0.1654,0.1711,0.175,0.1805,0.1834,0.1839,0.1918,0.1976,0.2064,0.2178,0.2219,0.231,0.2307,0.2247,0.2222,0.2384,0.2293,0.2303,0.2317,0.2263,0.2195,0.2144,0.2146,0.2147,0.2149,0.215,0,0.1587,0.1616,0.1658,0.1691,0.1697,0.1758,0.1805,0.1788,0.1793,0.1929,0.1984,0.1882,0.1903,0.1978,0.1917,0.192,0.189,0.183,0.1797,0.1831,0.186,0.1781,0.1535,0.1532,0.153,0.1527,0,0,0.157,0.1574,0.1584,0.1562,0.1584,0.1558,0.1555,0.155,0.162,0.1622,0.1662,0.1838,0.1955,0.1723,0.1709,0.162,0.17,0.1552,0.2062,0.2061,0.2086,0.2159,0.2079,0,0,0,0,0]},{"header":{"parameterUnit":"m.s-1","parameterCategory":2,"la1":30.2991,"la2":30.254,"lo1":-89.0895,"lo2":-89.0444,"dy":0.0017,"dx":0.0017,"nx":28,"ny":28,"refTime":"2024-04-29T03:00:00:Z","depth":"2","parameterNumber":3,"parameterNumberName":"V-component_of_CURRENTS"},"data":[0,0,0,0,0,0,0,0,0,0,0,0,0,0,0,0,0,0,0,0,0,0,0,0,0,0,0,0,0,0,0,0,0,0,0,0,0,0,0,0,0,0,0,0,0,0,0,0,0,0,0,0,0,0,0,0,0,0,-0.0156,-0.0157,0,-0.0223,-0.0223,-0.0224,-0.0267,-0.0267,-0.0267,-0.0268,-0.0319,-0.032,-0.0321,0,0,0,0,0,0,0,0,0,0,0,0,0,-0.0083,-0.0084,-0.0156,-0.0157,-0.0158,-0.0222,-0.0223,-0.0224,-0.0267,-0.0267,-0.0267,-0.0268,-0.0319,-0.032,-0.0321,0,0,0,0,0,0,0,0,0,0,0,0,0,-0.0128,-0.0084,-0.0156,-0.0187,-0.0191,-0.0222,-0.0223,-0.0224,-0.0267,-0.0267,-0.0267,-0.0268,-0.0318,-0.032,-0.0321,-0.0322,0,0,-0.0326,-0.0327,0,0,0,0,0,0,0,0,-0.0125,-0.013,-0.0182,-0.0185,-0.0189,-0.0237,-0.0216,-0.0256,-0.0266,-0.0237,-0.0268,-0.0268,-0.029,-0.0294,-0.0305,-0.0324,-0.0327,-0.0327,-0.0327,-0.0328,-0.0329,0,0,0,0,0,0,0,-0.0122,-0.0128,-0.0182,-0.0183,-0.0187,-0.0204,-0.021,-0.0224,-0.026,-0.024,-0.0243,-0.0251,-0.0292,-0.0303,-0.0307,-0.0327,-0.0326,-0.0328,-0.0329,-0.033,-0.0358,-0.0358,0,0,0,0,0,0,-0.0114,-0.0125,-0.018,-0.0184,-0.0158,-0.0205,-0.0212,-0.0221,-0.026,-0.0267,-0.0251,-0.0253,-0.03,-0.0305,-0.0309,-0.0314,-0.0328,-0.033,-0.0331,-0.0359,-0.0358,-0.0358,0,0,0,0,0,0,-0.0112,-0.0118,-0.0177,-0.0156,-0.0165,-0.0205,-0.0215,-0.0222,-0.0233,-0.0269,-0.0275,-0.0254,-0.0301,-0.0306,-0.0319,-0.0316,-0.033,-0.0332,-0.0359,-0.0358,-0.0358,-0.0324,0,0,0,0,0,0,-0.0109,-0.0117,-0.0116,-0.0156,-0.0166,-0.0188,-0.0215,-0.0223,-0.0237,-0.0241,-0.0273,-0.0279,-0.0302,-0.0316,-0.032,-0.0319,-0.0333,-0.0359,-0.0359,-0.0358,-0.0325,-0.0322,-0.032,0,0,0,0,0,-0.0107,-0.0101,-0.0115,-0.0122,-0.0165,-0.0187,-0.0193,-0.0224,-0.0237,-0.0236,-0.0261,-0.0278,-0.0317,-0.0317,-0.0322,-0.0321,-0.0359,-0.0359,-0.0358,-0.0326,-0.0323,-0.032,0,0,0,0,0,0,-0.0069,-0.0106,-0.0122,-0.0129,-0.0153,-0.0194,-0.0197,-0.0218,-0.0237,-0.0241,-0.0274,-0.0281,-0.0291,-0.0308,-0.0308,-0.0328,-0.0341,-0.0342,-0.0315,-0.0312,-0.031,-0.0306,-0.0334,0,0,0,0,0,-0.006,-0.0065,-0.0104,-0.0108,-0.0119,-0.0156,-0.0168,-0.019,-0.0215,-0.0225,-0.0252,-0.0276,-0.0293,-0.0304,-0.0322,-0.033,-0.0341,-0.0333,-0.0331,-0.0328,-0.0329,-0.0346,-0.0345,-0.0357,-0.0357,-0.0357,0,0,-0.0047,-0.0067,-0.007,-0.01,-0.0121,-0.0126,-0.0164,-0.0179,-0.0181,-0.0226,-0.0235,-0.0266,-0.0292,-0.0305,-0.0312,-0.032,-0.0327,-0.0328,-0.0325,-0.0327,-0.0346,-0.0345,-0.0344,-0.0356,-0.0356,-0.0356,0,0,-0.0019,-0.004,-0.0034,-0.005,-0.0079,-0.0101,-0.0102,-0.0143,-0.0158,-0.0173,-0.0207,-0.0237,-0.026,-0.0288,-0.0301,-0.0293,-0.031,-0.0297,-0.0284,-0.0301,-0.03,-0.03,-0.0293,-0.0293,-0.0298,-0.0298,-0.0298,0,-0.0001,-0.0,-0.0035,-0.0032,-0.0039,-0.0084,-0.0077,-0.0097,-0.0136,-0.0147,-0.0168,-0.0228,-0.0252,-0.0275,-0.0278,-0.0287,-0.0292,-0.0293,-0.0297,-0.0297,-0.0297,-0.0291,-0.0291,-0.0297,-0.0297,-0.0297,-0.0297,0,0.0027,0.0032,0.0035,0.0025,0.0014,0.0013,-0.0021,-0.0033,-0.0061,-0.009,-0.0126,-0.0178,-0.0212,-0.0231,-0.0252,-0.027,-0.0271,-0.0289,-0.0304,-0.0294,-0.0288,-0.0288,-0.0294,-0.0295,-0.0295,-0.0296,0,0,0.0058,0.0057,0.0059,0.007,0.0044,0.0041,0.0038,0.002,0.0026,-0.0039,-0.0043,-0.0111,-0.0155,-0.0174,-0.0219,-0.025,-0.0253,-0.027,-0.0271,-0.0261,-0.0272,-0.0278,-0.0278,-0.0274,-0.0274,-0.0274,-0.0261,0,0.0093,0.0122,0.0105,0.0135,0.0148,0.0112,0.0121,0.0096,0.0067,0.0055,-0.0028,-0.0051,-0.0126,-0.0144,-0.0189,-0.0234,-0.0255,-0.0254,-0.0287,-0.0287,-0.0292,-0.028,-0.0266,-0.0255,-0.0262,-0.0262,-0.0262,0,0.0126,0.0144,0.0179,0.0201,0.0202,0.0214,0.0217,0.0213,0.0178,0.0152,0.0089,0.0037,-0.003,-0.0086,-0.0178,-0.0173,-0.0216,-0.0261,-0.0262,-0.0282,-0.0294,-0.0271,-0.0256,-0.0263,-0.0263,-0.0263,-0.0263,0,0.0172,0.0198,0.0232,0.0236,0.0248,0.0261,0.0264,0.0243,0.0251,0.0209,0.0213,0.0114,0.008,-0.001,-0.0117,-0.0138,-0.0203,-0.0236,-0.0282,-0.0282,-0.0285,-0.0285,-0.0286,-0.0286,-0.0286,-0.0286,-0.0286,0,0.0216,0.0246,0.0262,0.0282,0.0331,0.0314,0.0356,0.0341,0.0337,0.0365,0.0264,0.0266,0.0095,0.0033,-0.0071,-0.0173,-0.0163,-0.0275,-0.0283,-0.027,-0.0269,-0.0295,-0.0296,-0.0286,-0.0286,-0.0286,-0.0286,0,0.026,0.0268,0.0314,0.0342,0.0355,0.0386,0.0422,0.0458,0.0436,0.0472,0.0464,0.0384,0.0296,0.0141,0.001,-0.01,-0.0202,-0.0235,-0.0201,-0.0207,-0.0278,-0.0277,-0.0284,-0.0284,-0.0284,-0.0285,-0.0285,0,0.0287,0.0315,0.036,0.0396,0.0414,0.0459,0.0503,0.0502,0.0545,0.0555,0.0589,0.0511,0.0474,0.0269,0.0055,-0.0121,-0.0162,-0.022,-0.0275,-0.0272,-0.028,-0.0279,-0.0278,-0.0253,-0.0253,-0.0253,-0.0253,0,0.0341,0.0353,0.0395,0.0466,0.0521,0.0579,0.0641,0.069,0.0706,0.0742,0.0783,0.0755,0.0551,0.0348,0.0083,-0.0038,-0.0201,-0.0223,-0.0222,-0.0262,-0.0244,-0.0251,-0.0252,-0.0252,-0.0252,-0.0252,-0.0252,-0.0252,0.0386,0.0424,0.0477,0.0545,0.061,0.0692,0.0752,0.0824,0.0898,0.0958,0.0935,0.091,0.066,0.0325,0.0076,-0.0183,-0.017,-0.0265,-0.0265,-0.0265,-0.027,-0.0255,-0.0263,-0.0263,-0.0263,-0.0263,-0.0264,0,0.0443,0.0484,0.0553,0.0634,0.0712,0.0732,0.0843,0.0906,0.1006,0.1071,0.1096,0.0898,0.0656,0.038,-0.0011,-0.0245,-0.0273,-0.0314,-0.0308,-0.0306,-0.0306,-0.0314,-0.0318,-0.0319,-0.032,-0.0321,0,0,0.0476,0.055,0.0578,0.0703,0.0763,0.0866,0.0931,0.1025,0.1097,0.1164,0.1164,0.1112,0.0771,0.0479,0.0141,-0.0092,-0.0139,-0.013,-0.0057,-0.0009,-0.0005,-0.0246,-0.0252,0,0,0,0,0]}],[{"header":{"parameterUnit":"m.s-1","parameterCategory":2,"la1":30.2991,"la2":30.254,"lo1":-89.0895,"lo2":-89.0444,"dy":0.0017,"dx":0.0017,"nx":28,"ny":28,"refTime":"2024-04-29T03:00:00:Z","depth":"4","parameterNumber":2,"parameterNumberName":"U-component_of_CURRENTS"},"data":[0,0,0,0,0,0,0,0,0,0,0,0,0,0,0,0,0,0,0,0,0,0,0,0,0,0,0,0,0,0,0,0,0,0,0,0,0,0,0,0,0,0,0,0,0,0,0,0,0,0,0,0,0,0,0,0,0,0,0.0885,0.0885,0,0.0908,0.0908,0.0908,0.0961,0.0962,0.0964,0.0965,0.1048,0.1049,0.105,0,0,0,0,0,0,0,0,0,0,0,0,0,0.0926,0.0925,0.0885,0.0885,0.0886,0.0908,0.0908,0.0908,0.0961,0.0962,0.0964,0.0965,0.1047,0.1049,0.105,0,0,0,0,0,0,0,0,0,0,0,0,0,0.0924,0.0925,0.0885,0.0915,0.0918,0.0908,0.0908,0.0909,0.0961,0.0963,0.0964,0.0966,0.1047,0.1049,0.105,0.1027,0,0,0.1056,0.1056,0,0,0,0,0,0,0,0,0.0924,0.0923,0.091,0.0913,0.0916,0.0934,0.0953,0.0951,0.096,0.0944,0.0965,0.0967,0.1014,0.1019,0.1018,0.1031,0.1035,0.1056,0.1057,0.1058,0.1058,0,0,0,0,0,0,0,0.0924,0.0922,0.0894,0.091,0.0914,0.0941,0.0942,0.0953,0.097,0.0946,0.095,0.0952,0.1016,0.1016,0.102,0.1036,0.1056,0.1057,0.1058,0.1059,0.1125,0.1126,0,0,0,0,0,0,0.0918,0.0922,0.0893,0.0895,0.0925,0.0938,0.094,0.0926,0.0969,0.0977,0.0951,0.0955,0.1012,0.1018,0.1024,0.1095,0.1058,0.1059,0.106,0.1124,0.1125,0.1126,0,0,0,0,0,0,0.0918,0.0914,0.0892,0.091,0.091,0.0936,0.092,0.0926,0.0955,0.0972,0.0982,0.0978,0.1014,0.1021,0.1058,0.1096,0.106,0.1062,0.1124,0.1125,0.1126,0.1178,0,0,0,0,0,0,0.0919,0.0914,0.0919,0.0909,0.0908,0.0903,0.0919,0.0925,0.0952,0.0958,0.0998,0.1005,0.1016,0.1055,0.106,0.1098,0.1063,0.1123,0.1124,0.1125,0.1175,0.118,0.1185,0,0,0,0,0,0.092,0.0918,0.0918,0.0916,0.0907,0.0903,0.0905,0.093,0.0952,0.0963,0.0994,0.1006,0.1067,0.1057,0.1062,0.1101,0.1122,0.1124,0.1125,0.1173,0.1179,0.1185,0,0,0,0,0,0,0.095,0.0923,0.0923,0.0916,0.0916,0.0913,0.0931,0.0941,0.0972,0.0988,0.101,0.1019,0.1071,0.1068,0.1056,0.1122,0.1098,0.1101,0.1133,0.1139,0.1144,0.1147,0.1064,0,0,0,0,0,0.0952,0.094,0.0924,0.0924,0.0924,0.093,0.0939,0.0948,0.0965,0.0982,0.1015,0.1045,0.1073,0.1093,0.1116,0.1142,0.1153,0.1171,0.1176,0.118,0.1185,0.1228,0.1238,0.1131,0.1131,0.1131,0,0,0.0969,0.095,0.0949,0.093,0.0934,0.0937,0.0941,0.0954,0.0977,0.0985,0.1045,0.1068,0.1085,0.1127,0.1149,0.1134,0.1216,0.1182,0.1186,0.1188,0.1231,0.1241,0.1251,0.1132,0.1132,0.1132,0,0,0.0982,0.0974,0.0966,0.0962,0.096,0.0961,0.0969,0.0979,0.101,0.1047,0.107,0.1104,0.1152,0.1167,0.118,0.1218,0.1244,0.124,0.1268,0.1311,0.132,0.1329,0.136,0.1371,0.1239,0.1239,0.1239,0,0.1006,0.0983,0.097,0.0961,0.0967,0.0975,0.0979,0.1004,0.1034,0.1065,0.1078,0.1152,0.1167,0.121,0.1233,0.1231,0.1265,0.1247,0.1319,0.1328,0.1335,0.1365,0.1377,0.1242,0.1242,0.1241,0.1241,0,0.1,0.0997,0.0996,0.0984,0.0991,0.0996,0.1014,0.1052,0.1093,0.1118,0.1185,0.12,0.1242,0.1257,0.1263,0.1327,0.1337,0.1326,0.1307,0.135,0.1378,0.1389,0.1246,0.1245,0.1244,0.1243,0,0,0.1011,0.0994,0.0997,0.0998,0.1002,0.1005,0.1055,0.1093,0.1142,0.1185,0.1245,0.1287,0.1306,0.1319,0.1329,0.1365,0.1448,0.1383,0.1384,0.1419,0.1559,0.1479,0.1482,0.1471,0.1473,0.1475,0.1558,0,0.1013,0.0998,0.0995,0.1012,0.1009,0.1037,0.1082,0.1126,0.118,0.1248,0.1276,0.1343,0.1326,0.1365,0.1393,0.1441,0.148,0.1426,0.1507,0.1509,0.1437,0.1493,0.1481,0.1566,0.1568,0.157,0.1571,0,0.0997,0.0991,0.0995,0.102,0.1026,0.1053,0.1126,0.1166,0.1254,0.1308,0.1362,0.1398,0.1456,0.1442,0.1523,0.1504,0.1541,0.1566,0.1569,0.1483,0.1448,0.1513,0.1591,0.1589,0.1588,0.1587,0.1585,0,0.0983,0.0993,0.0999,0.1002,0.1034,0.1074,0.1114,0.1193,0.1239,0.136,0.1413,0.1475,0.1524,0.1574,0.162,0.16,0.1714,0.1679,0.1634,0.1629,0.1653,0.1642,0.1748,0.1748,0.1747,0.1747,0.1747,0,0.0958,0.097,0.1003,0.1003,0.1049,0.1078,0.1145,0.1212,0.1296,0.1358,0.1442,0.1496,0.1571,0.1633,0.166,0.1681,0.1744,0.1653,0.165,0.1671,0.1662,0.1661,0.1649,0.175,0.175,0.1749,0.1749,0,0.0925,0.0941,0.0955,0.1006,0.1035,0.107,0.1153,0.1198,0.1299,0.1383,0.1432,0.154,0.1636,0.1689,0.1783,0.1725,0.1761,0.1758,0.1792,0.1788,0.1635,0.1625,0.1701,0.1699,0.1697,0.1695,0.1694,0,0.0899,0.0899,0.0954,0.0977,0.1006,0.1066,0.1109,0.1202,0.1248,0.1397,0.1431,0.1565,0.1632,0.1683,0.1749,0.1796,0.1778,0.177,0.1681,0.1643,0.1634,0.1627,0.162,0.1691,0.1691,0.1691,0.169,0,0.0856,0.0884,0.09,0.0945,0.0993,0.1031,0.1103,0.1124,0.1238,0.1333,0.1421,0.1482,0.1583,0.1642,0.1703,0.1725,0.1753,0.1751,0.1753,0.1669,0.1633,0.1624,0.1619,0.1684,0.1685,0.1686,0.1686,0,0.0839,0.0843,0.0874,0.091,0.0963,0.0989,0.1024,0.1085,0.1138,0.1293,0.1323,0.1469,0.1576,0.161,0.1663,0.1685,0.1648,0.1571,0.1581,0.1589,0.1513,0.1447,0.1453,0,0,0,0,0,0.0817,0.0818,0.084,0.0872,0.0915,0.0951,0.1019,0.1053,0.1157,0.1192,0.1253,0.1353,0.1439,0.1506,0.1509,0.1609,0.1649,0.1601,0.1563,0.1651,0.1658,0.1578,0,0,0,0,0,0,0.0804,0.0823,0.0822,0.0833,0.085,0.0894,0.0933,0.0997,0.1015,0.113,0.1189,0.1278,0.1385,0.1444,0.1491,0.1511,0.1458,0.1686,0.1683,0.1648,0.1654,0.1659,0.158,0,0,0,0,0]},{"header":{"parameterUnit":"m.s-1","parameterCategory":2,"la1":30.2991,"la2":30.254,"lo1":-89.0895,"lo2":-89.0444,"dy":0.0017,"dx":0.0017,"nx":28,"ny":28,"refTime":"2024-04-29T03:00:00:Z","depth":"4","parameterNumber":3,"parameterNumberName":"V-component_of_CURRENTS"},"data":[0,0,0,0,0,0,0,0,0,0,0,0,0,0,0,0,0,0,0,0,0,0,0,0,0,0,0,0,0,0,0,0,0,0,0,0,0,0,0,0,0,0,0,0,0,0,0,0,0,0,0,0,0,0,0,0,0,0,-0.0024,-0.0024,0,-0.0066,-0.0067,-0.0067,-0.0134,-0.0135,-0.0136,-0.0137,-0.0225,-0.0226,-0.0227,0,0,0,0,0,0,0,0,0,0,0,0,0,0.0005,0.0004,-0.0024,-0.0024,-0.0025,-0.0066,-0.0067,-0.0068,-0.0134,-0.0135,-0.0136,-0.0138,-0.0224,-0.0226,-0.0227,0,0,0,0,0,0,0,0,0,0,0,0,0,-0.002,0.0004,-0.0024,-0.0062,-0.0066,-0.0066,-0.0067,-0.0068,-0.0133,-0.0135,-0.0137,-0.0138,-0.0224,-0.0226,-0.0227,-0.0206,0,0,-0.0233,-0.0234,0,0,0,0,0,0,0,0,-0.0019,-0.0022,-0.0056,-0.0059,-0.0064,-0.0096,-0.0089,-0.0116,-0.0133,-0.0108,-0.0137,-0.0139,-0.0184,-0.0189,-0.0194,-0.021,-0.0213,-0.0234,-0.0235,-0.0236,-0.0236,0,0,0,0,0,0,0,-0.0017,-0.002,-0.0041,-0.0056,-0.0061,-0.0076,-0.0081,-0.0094,-0.0138,-0.0111,-0.0115,-0.0118,-0.0187,-0.0192,-0.0197,-0.0215,-0.0233,-0.0235,-0.0236,-0.0237,-0.0231,-0.0229,0,0,0,0,0,0,-0.0009,-0.0018,-0.004,-0.0043,-0.0044,-0.0075,-0.0081,-0.0084,-0.0137,-0.0146,-0.0117,-0.0121,-0.0188,-0.0194,-0.02,-0.0174,-0.0235,-0.0237,-0.0238,-0.0232,-0.023,-0.0229,0,0,0,0,0,0,-0.0008,-0.001,-0.0038,-0.0031,-0.0036,-0.0073,-0.0077,-0.0084,-0.0098,-0.0141,-0.0151,-0.0124,-0.0189,-0.0197,-0.0208,-0.0178,-0.0238,-0.024,-0.0234,-0.0232,-0.023,-0.0124,0,0,0,0,0,0,-0.0007,-0.001,-0.0006,-0.003,-0.0036,-0.0032,-0.0075,-0.0084,-0.0096,-0.0103,-0.0149,-0.0159,-0.0191,-0.0205,-0.021,-0.0182,-0.0241,-0.0235,-0.0233,-0.023,-0.0129,-0.0119,-0.011,0,0,0,0,0,-0.0006,0.0008,-0.0005,-0.0008,-0.003,-0.0031,-0.0034,-0.0068,-0.0095,-0.0089,-0.0122,-0.0158,-0.0193,-0.0205,-0.0212,-0.0183,-0.0236,-0.0233,-0.0231,-0.0133,-0.0121,-0.011,0,0,0,0,0,0,0.0022,0.0002,-0.0013,-0.0007,-0.0015,-0.0042,-0.0038,-0.0062,-0.0082,-0.0092,-0.0141,-0.0151,-0.0152,-0.0179,-0.0192,-0.0175,-0.022,-0.0218,-0.0144,-0.0133,-0.0123,-0.0106,-0.0243,0,0,0,0,0,0.0032,0.0038,0.0016,0.0024,0.0021,-0.0007,-0.0012,-0.0033,-0.0054,-0.0066,-0.01,-0.0129,-0.014,-0.0147,-0.0169,-0.0153,-0.019,-0.014,-0.013,-0.0122,-0.0112,-0.0141,-0.0133,-0.0219,-0.0219,-0.0219,0,0,0.0044,0.0037,0.0038,0.0031,0.002,0.0034,-0.0015,-0.0015,-0.0004,-0.007,-0.007,-0.01,-0.0131,-0.0119,-0.012,-0.0139,-0.0115,-0.0118,-0.011,-0.0105,-0.0137,-0.0129,-0.0121,-0.0217,-0.0218,-0.0218,0,0,0.0082,0.0067,0.0085,0.0087,0.0079,0.0066,0.0068,0.0043,0.003,0.0033,-0.001,-0.0018,-0.0045,-0.0052,-0.0059,-0.0006,-0.0068,-0.0017,0.0054,0.0027,0.0033,0.0039,0.0008,0.0009,-0.0005,-0.0005,-0.0005,0,0.0096,0.0117,0.0092,0.0116,0.0126,0.0084,0.0112,0.0103,0.0078,0.0077,0.0044,0.0024,-0.0007,0.0022,0.0039,0.0019,-0.0016,0.0013,0.004,0.0044,0.0048,0.0014,0.0015,0.0,-0.0,-0.0001,-0.0001,0,0.0148,0.0168,0.0183,0.0198,0.0207,0.0225,0.0211,0.021,0.0184,0.017,0.0176,0.0142,0.0128,0.0126,0.0099,0.0124,0.0084,0.005,0.0011,0.0063,0.0024,0.0023,0.0008,0.0006,0.0005,0.0003,0,0,0.0169,0.021,0.0215,0.0243,0.0252,0.0266,0.0289,0.0299,0.031,0.0289,0.0306,0.0299,0.0265,0.0255,0.0223,0.0212,0.0211,0.015,0.0146,0.0122,0.0142,0.0102,0.0095,0.0174,0.0174,0.0174,0.0106,0,0.0215,0.0281,0.0288,0.0352,0.0383,0.037,0.0397,0.0401,0.0384,0.0385,0.0363,0.0358,0.032,0.031,0.0299,0.0222,0.0211,0.0232,0.0093,0.0089,0.0049,0.0095,0.0175,0.0105,0.0104,0.0104,0.0104,0,0.0262,0.0302,0.0374,0.0432,0.0443,0.0475,0.0504,0.0526,0.0519,0.05,0.0495,0.0452,0.0444,0.0391,0.0316,0.0325,0.0249,0.0193,0.0188,0.0112,0.0046,0.0039,0.01,0.0101,0.0101,0.0101,0.0101,0,0.0292,0.0363,0.0424,0.0446,0.05,0.0528,0.0553,0.0561,0.0578,0.0569,0.0559,0.0536,0.0506,0.0431,0.0307,0.0305,0.0202,0.0178,0.0079,0.0074,0.0082,0.0077,0.0129,0.0129,0.0129,0.013,0.013,0,0.0339,0.039,0.0445,0.0482,0.0549,0.0575,0.0633,0.0638,0.0652,0.0669,0.0621,0.0608,0.0508,0.0428,0.0329,0.0196,0.0213,0.0102,0.006,0.0129,0.0129,0.0081,0.0077,0.0127,0.0128,0.0128,0.0129,0,0.0366,0.0403,0.0477,0.0545,0.0568,0.0617,0.0681,0.0711,0.0714,0.0729,0.0723,0.0655,0.0544,0.0433,0.0291,0.0211,0.0094,0.0039,0.0121,0.0082,-0.0017,-0.0015,-0.0057,-0.0059,-0.0061,-0.0062,-0.0063,0,0.0388,0.0429,0.0516,0.0553,0.0587,0.0659,0.0699,0.0734,0.0759,0.0748,0.0748,0.0654,0.0587,0.0374,0.025,0.0067,0.0034,-0.0022,-0.0002,0.0004,-0.0033,-0.0029,-0.0025,-0.0066,-0.0066,-0.0066,-0.0067,0,0.0422,0.045,0.0506,0.0576,0.0631,0.0699,0.0758,0.0777,0.0804,0.081,0.0753,0.0643,0.0514,0.036,0.0207,0.0077,0.0024,-0.0039,-0.0036,-0.0018,-0.0007,-0.0041,-0.0035,-0.0072,-0.0071,-0.0071,-0.0071,0,0.0436,0.047,0.0528,0.0589,0.0656,0.0707,0.0749,0.0773,0.0798,0.0787,0.0763,0.0631,0.0566,0.0361,0.0223,0.0089,0.0062,0.0028,0.0027,0.0032,0.0074,0.0101,0.0046,0,0,0,0,0,0.0442,0.0471,0.0531,0.0596,0.0661,0.0699,0.0767,0.08,0.0826,0.0788,0.0779,0.0656,0.0448,0.0364,0.0223,0.0186,0.0032,0.0016,-0.0008,-0.0103,-0.0096,-0.0066,0,0,0,0,0,0,0.0442,0.0494,0.0522,0.0581,0.0624,0.0694,0.0738,0.0762,0.0748,0.0754,0.0649,0.0613,0.0415,0.0523,0.0215,0.0176,0.014,-0.0072,-0.0075,-0.0106,-0.0101,-0.0095,-0.0062,0,0,0,0,0]}]]